Home   Weather   Suzhou   Past weeks

Flag for China Past Weather in Suzhou, Jiangsu, China — Yesterday and Last 2 Weeks

Now
54 °F

Light rain. Fog.


Feels Like: 51 °F
Forecast: 47 / 57 °F
Wind: 8 mph from North

Location: Shanghai Hongqiao Airport

Current Time: Nov 21, 2017 at 10:31:05 pm

Latest Report: Nov 21, 2017 at 10:00 pm


Visibility: 2 mi

Pressure: 30.15 "Hg

Humidity: 94%

Dew Point: 52 °F

Location of SuzhouLocation

Past Weather in Suzhou — Graph

°F

Suzhou Temperature Yesterday

Maximum temperature yesterday: 54 °F (at 2:00 pm)
Minimum temperature yesterday: 46 °F (at 2:30 am)
Average temperature yesterday: 48 °F

High & Low Weather Summary for the Past Weeks

 TemperatureHumidityPressure
High73 °F (Nov 8, 11:30 am)94% (Nov 13, 8:30 pm)30.42 "Hg (Nov 13, 8:30 pm)
Low39 °F (Nov 19, 4:00 am)33% (Nov 8, 3:30 pm)29.86 "Hg (Nov 17, 1:00 pm)
Average58 °F73%30.17 "Hg
* Reported Nov 6 9:00 pm — Nov 21 9:30 pm, Suzhou. Weather by CustomWeather, © 2017

Note: Actual official high and low records may vary slightly from our data, if they occured in-between our weather recording intervals... More about our weather records

Advertising

Suzhou Weather History for the Previous 24 Hours

Scroll right to see more
 ConditionsComfort  
Time TempWeatherWind HumidityBarometerVisibility
9:30 pm
Tue, Nov 21
54 °FLight rain. Fog.6 mph94%30.15 "Hg1 mi
9:00 pm54 °FLight rain. Fog.6 mph94%30.15 "Hg1 mi
8:30 pm54 °FLight rain. Fog.6 mph94%30.15 "Hg2 mi
8:00 pm54 °FLight rain. Fog.3 mph94%30.15 "Hg2 mi
7:30 pm54 °FLight rain. Fog.1 mph88%30.15 "Hg2 mi
7:00 pm54 °FFog.3 mph88%30.15 "Hg3 mi
6:30 pm54 °FFog.3 mph88%30.18 "Hg3 mi
6:00 pm54 °FFog.3 mph88%30.18 "Hg3 mi
5:30 pm54 °FFog.3 mph88%30.15 "Hg2 mi
5:00 pm52 °FLight rain. Fog.3 mph94%30.18 "Hg2 mi
4:30 pm52 °FLight rain. Fog.3 mph94%30.18 "Hg2 mi
4:00 pm54 °FLight rain. Fog.3 mph88%30.18 "Hg2 mi
3:30 pm52 °FLight rain. Fog.3 mph94%30.18 "Hg2 mi
3:00 pm52 °FLight rain. Fog.3 mph94%30.18 "Hg2 mi
2:30 pm52 °FLight rain. Fog.3 mph88%30.21 "Hg2 mi
2:00 pm52 °FLight rain. Fog.3 mph88%30.21 "Hg2 mi
1:30 pm52 °FLight rain. Fog.3 mph88%30.21 "Hg3 mi
1:00 pm52 °FLight rain. Fog.8 mph82%30.21 "Hg3 mi
12:30 pm54 °FLight rain. Fog.6 mph82%30.24 "Hg3 mi
12:00 pm54 °FLight rain. Fog.6 mph77%30.24 "Hg3 mi
11:30 am54 °FLight rain. Fog.6 mph77%30.27 "Hg3 mi
11:00 am52 °FFog.3 mph77%30.27 "Hg3 mi
10:30 am52 °FFog.3 mph77%30.30 "Hg3 mi
10:00 am52 °FFog.3 mph77%30.30 "Hg3 mi
9:30 am50 °FClear.3 mph82%30.33 "Hg4 mi
9:00 am50 °FClear.6 mph82%30.33 "Hg4 mi
8:30 am48 °FLight rain. Overcast.6 mph87%30.33 "Hg4 mi
8:00 am48 °FClear.6 mph82%30.33 "Hg5 mi
7:30 am48 °FSunny.6 mph82%30.33 "Hg10 mi
7:00 am48 °FSunny.6 mph82%30.33 "Hg10 mi
6:30 am48 °FSunny.6 mph82%30.30 "Hg10 mi
6:00 am46 °FClear.3 mph82%30.30 "Hg10 mi
5:30 am46 °FClear.6 mph82%30.30 "Hg10 mi
5:00 am46 °FClear.6 mph82%30.30 "Hg10 mi
4:30 am46 °FClear.3 mph82%30.30 "Hg10 mi
4:00 am45 °FClear.3 mph81%30.30 "Hg10 mi
3:30 am45 °FClear.3 mph81%30.33 "Hg10 mi
3:00 am45 °FClear.1 mph81%30.33 "Hg10 mi
2:30 am45 °FClear.3 mph81%30.33 "Hg10 mi
2:00 am45 °FClear.6 mph76%30.36 "Hg10 mi
1:30 am45 °FClear.6 mph76%30.36 "Hg10 mi
1:00 am45 °FClear.3 mph76%30.36 "Hg10 mi
12:30 am45 °FClear.8 mph76%30.36 "Hg10 mi
12:00 am46 °FClear.6 mph71%30.36 "Hg10 mi
11:30 pm
Mon, Nov 20
46 °FClear.6 mph76%30.36 "Hg10 mi
11:00 pm46 °FClear.6 mph76%30.39 "Hg10 mi
10:30 pm46 °FClear.6 mph76%30.39 "Hg10 mi
10:00 pm46 °FPassing clouds.6 mph76%30.39 "HgN/A
Weather by CustomWeather, © 2017

See weather overview